Year,Month,Day,Hour,Minute,Value (Times are PST for temperature in C)
2014,07,15,00,00,16.60
2014,07,15,00,01,16.60
2014,07,15,00,02,16.50
2014,07,15,00,03,16.50
2014,07,15,00,04,16.40
2014,07,15,00,05,16.40
2014,07,15,00,06,16.40
2014,07,15,00,07,16.40
2014,07,15,00,08,16.30
2014,07,15,00,09,16.30
2014,07,15,00,10,16.30
2014,07,15,00,11,16.30
2014,07,15,00,12,16.30
2014,07,15,00,13,16.20
2014,07,15,00,14,16.20
2014,07,15,00,15,16.20
2014,07,15,00,16,16.20
2014,07,15,00,17,16.20
2014,07,15,00,18,16.10
2014,07,15,00,19,16.10
2014,07,15,00,20,16.10
2014,07,15,00,21,16.10
2014,07,15,00,22,16.00
2014,07,15,00,23,16.00
2014,07,15,00,24,15.90
2014,07,15,00,25,15.90
2014,07,15,00,26,15.90
2014,07,15,00,27,15.80
2014,07,15,00,28,15.80
2014,07,15,00,29,15.80
2014,07,15,00,30,15.70
2014,07,15,00,31,15.70
2014,07,15,00,32,15.70
2014,07,15,00,33,15.70
2014,07,15,00,34,15.60
2014,07,15,00,35,15.60
2014,07,15,00,36,15.50
2014,07,15,00,37,15.50
2014,07,15,00,38,15.40
2014,07,15,00,39,15.40
2014,07,15,00,40,15.30
2014,07,15,00,41,15.30
2014,07,15,00,42,15.20
2014,07,15,00,43,15.20
2014,07,15,00,44,15.10
2014,07,15,00,45,15.10
2014,07,15,00,46,15.00
2014,07,15,00,47,15.00
2014,07,15,00,48,15.00
2014,07,15,00,49,15.00
2014,07,15,00,50,15.00
2014,07,15,00,51,15.00
2014,07,15,00,52,15.00
2014,07,15,00,53,15.00
2014,07,15,00,54,15.00
2014,07,15,00,55,15.00
2014,07,15,00,56,15.00
2014,07,15,00,57,15.00
2014,07,15,00,58,15.00
2014,07,15,00,59,14.90
2014,07,15,01,00,14.90
2014,07,15,01,01,14.90
2014,07,15,01,02,14.90
2014,07,15,01,03,14.90
2014,07,15,01,04,15.00
2014,07,15,01,05,15.00
2014,07,15,01,06,15.00
2014,07,15,01,07,15.00
2014,07,15,01,08,15.00
2014,07,15,01,09,15.00
2014,07,15,01,10,15.00
2014,07,15,01,11,15.00
2014,07,15,01,12,15.00
2014,07,15,01,13,15.00
2014,07,15,01,14,15.00
2014,07,15,01,15,15.10
2014,07,15,01,16,15.10
2014,07,15,01,17,15.10
2014,07,15,01,18,15.10
2014,07,15,01,19,15.10
2014,07,15,01,20,15.10
2014,07,15,01,21,15.00
2014,07,15,01,22,15.00
2014,07,15,01,23,15.00
2014,07,15,01,24,15.00
2014,07,15,01,25,15.00
2014,07,15,01,26,15.00
2014,07,15,01,27,15.00
2014,07,15,01,28,15.00
2014,07,15,01,29,15.00
2014,07,15,01,30,15.00
2014,07,15,01,31,15.10
2014,07,15,01,32,15.10
2014,07,15,01,33,15.10
2014,07,15,01,34,15.10
2014,07,15,01,35,15.10
2014,07,15,01,36,15.00
2014,07,15,01,37,15.00
2014,07,15,01,38,15.00
2014,07,15,01,39,15.00
2014,07,15,01,40,15.00
2014,07,15,01,41,15.00
2014,07,15,01,42,15.00
2014,07,15,01,43,15.00
2014,07,15,01,44,15.00
2014,07,15,01,45,15.00
2014,07,15,01,46,15.00
2014,07,15,01,47,15.00
2014,07,15,01,48,15.00
2014,07,15,01,49,15.00
2014,07,15,01,50,15.00
2014,07,15,01,51,15.00
2014,07,15,01,52,15.00
2014,07,15,01,53,15.00
2014,07,15,01,54,15.00
2014,07,15,01,55,15.00
2014,07,15,01,56,15.00
2014,07,15,01,57,15.00
2014,07,15,01,58,15.00
2014,07,15,01,59,15.00
2014,07,15,02,00,15.00
2014,07,15,02,01,14.90
2014,07,15,02,02,14.90
2014,07,15,02,03,14.90
2014,07,15,02,04,14.90
2014,07,15,02,05,14.90
2014,07,15,02,06,14.90
2014,07,15,02,07,14.80
2014,07,15,02,08,14.80
2014,07,15,02,09,14.90
2014,07,15,02,10,14.90
2014,07,15,02,11,14.90
2014,07,15,02,12,14.90
2014,07,15,02,13,15.00
2014,07,15,02,14,15.00
2014,07,15,02,15,15.00
2014,07,15,02,16,15.00
2014,07,15,02,17,15.00
2014,07,15,02,18,15.00
2014,07,15,02,19,15.00
2014,07,15,02,20,15.00
2014,07,15,02,21,15.00
2014,07,15,02,22,15.00
2014,07,15,02,23,15.00
2014,07,15,02,24,15.00
2014,07,15,02,25,15.00
2014,07,15,02,26,15.00
2014,07,15,02,27,15.00
2014,07,15,02,28,15.00
2014,07,15,02,29,15.00
2014,07,15,02,30,15.00
2014,07,15,02,31,15.00
2014,07,15,02,32,14.90
2014,07,15,02,33,14.90
2014,07,15,02,34,14.80
2014,07,15,02,35,14.80
2014,07,15,02,36,14.70
2014,07,15,02,37,14.70
2014,07,15,02,38,14.70
2014,07,15,02,39,14.70
2014,07,15,02,40,14.70
2014,07,15,02,41,14.70
2014,07,15,02,42,14.70
2014,07,15,02,43,14.80
2014,07,15,02,44,14.80
2014,07,15,02,45,14.90
2014,07,15,02,46,14.90
2014,07,15,02,47,14.90
2014,07,15,02,48,15.00
2014,07,15,02,49,15.00
2014,07,15,02,50,15.00
2014,07,15,02,51,15.00
2014,07,15,02,52,14.90
2014,07,15,02,53,14.90
2014,07,15,02,54,14.80
2014,07,15,02,55,14.70
2014,07,15,02,56,14.70
2014,07,15,02,57,14.60
2014,07,15,02,58,14.60
2014,07,15,02,59,14.50
2014,07,15,03,00,14.50
2014,07,15,03,01,14.50
2014,07,15,03,02,14.60
2014,07,15,03,03,14.60
2014,07,15,03,04,14.70
2014,07,15,03,05,14.70
2014,07,15,03,06,14.70
2014,07,15,03,07,14.80
2014,07,15,03,08,14.80
2014,07,15,03,09,14.80
2014,07,15,03,10,14.80
2014,07,15,03,11,14.80
2014,07,15,03,12,14.70
2014,07,15,03,13,14.70
2014,07,15,03,14,14.60
2014,07,15,03,15,14.60
2014,07,15,03,16,14.50
2014,07,15,03,17,14.50
2014,07,15,03,18,14.40
2014,07,15,03,19,14.40
2014,07,15,03,20,14.40
2014,07,15,03,21,14.40
2014,07,15,03,22,14.40
2014,07,15,03,23,14.30
2014,07,15,03,24,14.30
2014,07,15,03,25,14.30
2014,07,15,03,26,14.30
2014,07,15,03,27,14.20
2014,07,15,03,28,14.20
2014,07,15,03,29,14.10
2014,07,15,03,30,14.10
2014,07,15,03,31,14.00
2014,07,15,03,32,13.90
2014,07,15,03,33,13.90
2014,07,15,03,34,13.80
2014,07,15,03,35,13.80
2014,07,15,03,36,13.70
2014,07,15,03,37,13.70
2014,07,15,03,38,13.60
2014,07,15,03,39,13.60
2014,07,15,03,40,13.50
2014,07,15,03,41,13.50
2014,07,15,03,42,13.50
2014,07,15,03,43,13.40
2014,07,15,03,44,13.40
2014,07,15,03,45,13.40
2014,07,15,03,46,13.30
2014,07,15,03,47,13.30
2014,07,15,03,48,13.30
2014,07,15,03,49,13.30
2014,07,15,03,50,13.30
2014,07,15,03,51,13.30
2014,07,15,03,52,13.30
2014,07,15,03,53,13.30
2014,07,15,03,54,13.30
2014,07,15,03,55,13.30
2014,07,15,03,56,13.30
2014,07,15,03,57,13.30
2014,07,15,03,58,13.20
2014,07,15,03,59,13.20
2014,07,15,04,00,13.20
2014,07,15,04,01,13.20
2014,07,15,04,02,13.20
2014,07,15,04,03,13.20
2014,07,15,04,04,13.10
2014,07,15,04,05,13.10
2014,07,15,04,06,13.10
2014,07,15,04,07,13.20
2014,07,15,04,08,13.20
2014,07,15,04,09,13.20
2014,07,15,04,10,13.20
2014,07,15,04,11,13.20
2014,07,15,04,12,13.20
2014,07,15,04,13,13.20
2014,07,15,04,14,13.10
2014,07,15,04,15,13.10
2014,07,15,04,16,13.10
2014,07,15,04,17,13.10
2014,07,15,04,18,13.10
2014,07,15,04,19,13.10
2014,07,15,04,20,13.10
2014,07,15,04,21,13.10
2014,07,15,04,22,13.00
2014,07,15,04,23,13.00
2014,07,15,04,24,13.00
2014,07,15,04,25,13.00
2014,07,15,04,26,13.00
2014,07,15,04,27,13.00
2014,07,15,04,28,13.00
2014,07,15,04,29,12.90
2014,07,15,04,30,12.90
2014,07,15,04,31,12.90
2014,07,15,04,32,12.90
2014,07,15,04,33,12.90
2014,07,15,04,34,12.90
2014,07,15,04,35,12.80
2014,07,15,04,36,12.80
2014,07,15,04,37,12.80
2014,07,15,04,38,12.90
2014,07,15,04,39,12.90
2014,07,15,04,40,12.90
2014,07,15,04,41,12.90
2014,07,15,04,42,13.00
2014,07,15,04,43,13.00
2014,07,15,04,44,12.90
2014,07,15,04,45,12.90
2014,07,15,04,46,12.90
2014,07,15,04,47,12.90
2014,07,15,04,48,12.90
2014,07,15,04,49,12.90
2014,07,15,04,50,13.00
2014,07,15,04,51,13.00
2014,07,15,04,52,13.00
2014,07,15,04,53,13.00
2014,07,15,04,54,13.00
2014,07,15,04,55,12.90
2014,07,15,04,56,12.90
2014,07,15,04,57,12.90
2014,07,15,04,58,12.90
2014,07,15,04,59,12.90
2014,07,15,05,00,12.90
2014,07,15,05,01,12.90
2014,07,15,05,02,12.90
2014,07,15,05,03,12.90
2014,07,15,05,04,12.90
2014,07,15,05,05,12.90
2014,07,15,05,06,12.90
2014,07,15,05,07,12.80
2014,07,15,05,08,12.80
2014,07,15,05,09,12.80
2014,07,15,05,10,12.80
2014,07,15,05,11,12.80
2014,07,15,05,12,12.80
2014,07,15,05,13,12.80
2014,07,15,05,14,12.80
2014,07,15,05,15,12.80
2014,07,15,05,16,12.80
2014,07,15,05,17,12.80
2014,07,15,05,18,12.80
2014,07,15,05,19,12.80
2014,07,15,05,20,12.80
2014,07,15,05,21,12.80
2014,07,15,05,22,12.80
2014,07,15,05,23,12.80
2014,07,15,05,24,12.80
2014,07,15,05,25,12.90
2014,07,15,05,26,12.90
2014,07,15,05,27,12.90
2014,07,15,05,28,13.00
2014,07,15,05,29,13.00
2014,07,15,05,30,13.10
2014,07,15,05,31,13.10
2014,07,15,05,32,13.10
2014,07,15,05,33,13.20
2014,07,15,05,34,13.20
2014,07,15,05,35,13.20
2014,07,15,05,36,13.10
2014,07,15,05,37,13.10
2014,07,15,05,38,13.10
2014,07,15,05,39,13.10
2014,07,15,05,40,13.10
2014,07,15,05,41,13.00
2014,07,15,05,42,13.00
2014,07,15,05,43,13.10
2014,07,15,05,44,13.10
2014,07,15,05,45,13.10
2014,07,15,05,46,13.10
2014,07,15,05,47,13.10
2014,07,15,05,48,13.10
2014,07,15,05,49,13.20
2014,07,15,05,50,13.20
2014,07,15,05,51,13.20
2014,07,15,05,52,13.20
2014,07,15,05,53,13.20
2014,07,15,05,54,13.20
2014,07,15,05,55,13.10
2014,07,15,05,56,13.10
2014,07,15,05,57,13.10
2014,07,15,05,58,13.00
2014,07,15,05,59,13.00
2014,07,15,06,00,13.00
2014,07,15,06,01,13.00
2014,07,15,06,02,13.00
2014,07,15,06,03,13.00
2014,07,15,06,04,13.00
2014,07,15,06,05,13.10
2014,07,15,06,06,13.10
2014,07,15,06,07,13.10
2014,07,15,06,08,13.10
2014,07,15,06,09,13.20
2014,07,15,06,10,13.20
2014,07,15,06,11,13.20
2014,07,15,06,12,13.20
2014,07,15,06,13,13.30
2014,07,15,06,14,13.30
2014,07,15,06,15,13.30
2014,07,15,06,16,13.30
2014,07,15,06,17,13.30
2014,07,15,06,18,13.30
2014,07,15,06,19,13.30
2014,07,15,06,20,13.30
2014,07,15,06,21,13.30
2014,07,15,06,22,13.30
2014,07,15,06,23,13.30
2014,07,15,06,24,13.30
2014,07,15,06,25,13.30
2014,07,15,06,26,13.30
2014,07,15,06,27,13.30
2014,07,15,06,28,13.30
2014,07,15,06,29,13.30
2014,07,15,06,30,13.30
2014,07,15,06,31,13.30
2014,07,15,06,32,13.30
2014,07,15,06,33,13.30
2014,07,15,06,34,13.30
2014,07,15,06,35,13.40
2014,07,15,06,36,13.40
2014,07,15,06,37,13.40
2014,07,15,06,38,13.40
2014,07,15,06,39,13.30
2014,07,15,06,40,13.30
2014,07,15,06,41,13.30
2014,07,15,06,42,13.30
2014,07,15,06,43,13.30
2014,07,15,06,44,13.40
2014,07,15,06,45,13.40
2014,07,15,06,46,13.40
2014,07,15,06,47,13.40
2014,07,15,06,48,13.50
2014,07,15,06,49,13.50
2014,07,15,06,50,13.50
2014,07,15,06,51,13.60
2014,07,15,06,52,13.60
2014,07,15,06,53,13.60
2014,07,15,06,54,13.70
2014,07,15,06,55,13.70
2014,07,15,06,56,13.70
2014,07,15,06,57,13.70
2014,07,15,06,58,13.80
2014,07,15,06,59,13.80
2014,07,15,07,00,13.90
2014,07,15,07,01,13.90
2014,07,15,07,02,14.00
2014,07,15,07,03,14.00
2014,07,15,07,04,14.10
2014,07,15,07,05,14.20
2014,07,15,07,06,14.20
2014,07,15,07,07,14.30
2014,07,15,07,08,14.30
2014,07,15,07,09,14.30
2014,07,15,07,10,14.30
2014,07,15,07,11,14.40
2014,07,15,07,12,14.40
2014,07,15,07,13,14.40
2014,07,15,07,14,14.50
2014,07,15,07,15,14.50
2014,07,15,07,16,14.60
2014,07,15,07,17,14.60
2014,07,15,07,18,14.60
2014,07,15,07,19,14.60
2014,07,15,07,20,14.70
2014,07,15,07,21,14.70
2014,07,15,07,22,14.70
2014,07,15,07,23,14.80
2014,07,15,07,24,14.80
2014,07,15,07,25,14.90
2014,07,15,07,26,14.90
2014,07,15,07,27,15.00
2014,07,15,07,28,15.00
2014,07,15,07,29,15.00
2014,07,15,07,30,15.00
2014,07,15,07,31,15.00
2014,07,15,07,32,15.00
2014,07,15,07,33,15.20
2014,07,15,07,34,15.30
2014,07,15,07,35,15.40
2014,07,15,07,36,15.50
2014,07,15,07,37,15.60
2014,07,15,07,38,15.70
2014,07,15,07,39,15.80
2014,07,15,07,40,15.90
2014,07,15,07,41,15.90
2014,07,15,07,42,16.00
2014,07,15,07,43,16.10
2014,07,15,07,44,16.20
2014,07,15,07,45,16.30
2014,07,15,07,46,16.40
2014,07,15,07,47,16.50
2014,07,15,07,48,16.60
2014,07,15,07,49,16.70
2014,07,15,07,50,16.80
2014,07,15,07,51,16.90
2014,07,15,07,52,17.00
2014,07,15,07,53,17.00
2014,07,15,07,54,17.10
2014,07,15,07,55,17.20
2014,07,15,07,56,17.20
2014,07,15,07,57,17.20
2014,07,15,07,58,17.30
2014,07,15,07,59,17.30
2014,07,15,08,00,17.40
2014,07,15,08,01,17.40
2014,07,15,08,02,17.40
2014,07,15,08,03,17.50
2014,07,15,08,04,17.50
2014,07,15,08,05,17.60
2014,07,15,08,06,17.60
2014,07,15,08,07,17.70
2014,07,15,08,08,17.70
2014,07,15,08,09,17.70
2014,07,15,08,10,17.70
2014,07,15,08,11,17.80
2014,07,15,08,12,17.80
2014,07,15,08,13,17.90
2014,07,15,08,14,17.90
2014,07,15,08,15,18.00
2014,07,15,08,16,18.10
2014,07,15,08,17,18.20
2014,07,15,08,18,18.30
2014,07,15,08,19,18.30
2014,07,15,08,20,18.30
2014,07,15,08,21,18.30
2014,07,15,08,22,18.20
2014,07,15,08,23,18.10
2014,07,15,08,24,18.00
2014,07,15,08,25,17.90
2014,07,15,08,26,17.80
2014,07,15,08,27,17.80
2014,07,15,08,28,17.80
2014,07,15,08,29,17.70
2014,07,15,08,30,17.70
2014,07,15,08,31,17.70
2014,07,15,08,32,17.70
2014,07,15,08,33,17.70
2014,07,15,08,34,17.60
2014,07,15,08,35,17.60
2014,07,15,08,36,17.60
2014,07,15,08,37,17.60
2014,07,15,08,38,17.60
2014,07,15,08,39,17.60
2014,07,15,08,40,17.60
2014,07,15,08,41,17.60
2014,07,15,08,42,17.60
2014,07,15,08,43,17.60
2014,07,15,08,44,17.70
2014,07,15,08,45,17.70
2014,07,15,08,46,17.70
2014,07,15,08,47,17.70
2014,07,15,08,48,17.80
2014,07,15,08,49,17.80
2014,07,15,08,50,17.80
2014,07,15,08,51,17.80
2014,07,15,08,52,17.80
2014,07,15,08,53,17.80
2014,07,15,08,54,17.80
2014,07,15,08,55,17.80
2014,07,15,08,56,17.80
2014,07,15,08,57,17.80
2014,07,15,08,58,17.80
2014,07,15,08,59,17.90
2014,07,15,09,00,17.90
2014,07,15,09,01,18.00
2014,07,15,09,02,18.00
2014,07,15,09,03,18.10
2014,07,15,09,04,18.10
2014,07,15,09,05,18.10
2014,07,15,09,06,18.00
2014,07,15,09,07,18.00
2014,07,15,09,08,18.10
2014,07,15,09,09,18.00
2014,07,15,09,10,18.10
2014,07,15,09,11,18.10
2014,07,15,09,12,18.20
2014,07,15,09,13,18.20
2014,07,15,09,14,18.20
2014,07,15,09,15,18.30
2014,07,15,09,16,18.30
2014,07,15,09,17,18.40
2014,07,15,09,18,18.50
2014,07,15,09,19,18.50
2014,07,15,09,20,18.60
2014,07,15,09,21,18.60
2014,07,15,09,22,18.70
2014,07,15,09,23,18.70
2014,07,15,09,24,18.70
2014,07,15,09,25,18.70
2014,07,15,09,26,18.80
2014,07,15,09,27,18.80
2014,07,15,09,28,18.80
2014,07,15,09,29,18.80
2014,07,15,09,30,18.80
2014,07,15,09,31,18.80
2014,07,15,09,32,18.80
2014,07,15,09,33,18.80
2014,07,15,09,34,18.90
2014,07,15,09,35,18.90
2014,07,15,09,36,18.90
2014,07,15,09,37,19.00
2014,07,15,09,38,19.00
2014,07,15,09,39,19.10
2014,07,15,09,40,19.10
2014,07,15,09,41,19.10
2014,07,15,09,42,19.20
2014,07,15,09,43,19.30
2014,07,15,09,44,19.30
2014,07,15,09,45,19.30
2014,07,15,09,46,19.30
2014,07,15,09,47,19.30
2014,07,15,09,48,19.30
2014,07,15,09,49,19.40
2014,07,15,09,50,19.40
2014,07,15,09,51,19.50
2014,07,15,09,52,19.50
2014,07,15,09,53,19.50
2014,07,15,09,54,19.60
2014,07,15,09,55,19.60
2014,07,15,09,56,19.60
2014,07,15,09,57,19.60
2014,07,15,09,58,19.60
2014,07,15,09,59,19.50
2014,07,15,10,00,19.40
2014,07,15,10,01,19.30
2014,07,15,10,02,19.20
2014,07,15,10,03,19.10
2014,07,15,10,04,19.10
2014,07,15,10,05,19.00
2014,07,15,10,06,18.90
2014,07,15,10,07,18.90
2014,07,15,10,08,18.90
2014,07,15,10,09,18.90
2014,07,15,10,10,18.90
2014,07,15,10,11,19.00
2014,07,15,10,12,19.00
2014,07,15,10,13,19.00
2014,07,15,10,14,19.00
2014,07,15,10,15,19.00
2014,07,15,10,16,19.00
2014,07,15,10,17,18.90
2014,07,15,10,18,18.90
2014,07,15,10,19,18.90
2014,07,15,10,20,18.90
2014,07,15,10,21,18.80
2014,07,15,10,22,18.80
2014,07,15,10,23,18.90
2014,07,15,10,24,18.90
2014,07,15,10,25,18.90
2014,07,15,10,26,18.90
2014,07,15,10,27,18.90
2014,07,15,10,28,18.90
2014,07,15,10,29,18.90
2014,07,15,10,30,18.80
2014,07,15,10,31,18.80
2014,07,15,10,32,18.90
2014,07,15,10,33,18.90
2014,07,15,10,34,18.90
2014,07,15,10,35,18.90
2014,07,15,10,36,18.90
2014,07,15,10,37,18.90
2014,07,15,10,38,18.90
2014,07,15,10,39,18.90
2014,07,15,10,40,18.90
2014,07,15,10,41,18.90
2014,07,15,10,42,18.90
2014,07,15,10,43,18.90
2014,07,15,10,44,18.90
2014,07,15,10,45,18.80
2014,07,15,10,46,18.70
2014,07,15,10,47,18.60
2014,07,15,10,48,18.60
2014,07,15,10,49,18.60
2014,07,15,10,50,18.60
2014,07,15,10,51,18.60
2014,07,15,10,52,18.70
2014,07,15,10,53,18.70
2014,07,15,10,54,18.80
2014,07,15,10,55,18.80
2014,07,15,10,56,18.90
2014,07,15,10,57,18.90
2014,07,15,10,58,19.00
2014,07,15,10,59,19.10
2014,07,15,11,00,19.20
2014,07,15,11,01,19.20
2014,07,15,11,02,19.30
2014,07,15,11,03,19.30
2014,07,15,11,04,19.40
2014,07,15,11,05,19.40
2014,07,15,11,06,19.50
2014,07,15,11,07,19.50
2014,07,15,11,08,19.60
2014,07,15,11,09,19.60
2014,07,15,11,10,19.60
2014,07,15,11,11,19.60
2014,07,15,11,12,19.70
2014,07,15,11,13,19.70
2014,07,15,11,14,19.70
2014,07,15,11,15,19.70
2014,07,15,11,16,19.60
2014,07,15,11,17,19.50
2014,07,15,11,18,19.40
2014,07,15,11,19,19.40
2014,07,15,11,20,19.30
2014,07,15,11,21,19.30
2014,07,15,11,22,19.40
2014,07,15,11,23,19.50
2014,07,15,11,24,19.60
2014,07,15,11,25,19.60
2014,07,15,11,26,19.70
2014,07,15,11,27,19.70
2014,07,15,11,28,19.60
2014,07,15,11,29,19.60
2014,07,15,11,30,19.60
2014,07,15,11,31,19.60
2014,07,15,11,32,19.60
2014,07,15,11,33,19.60
2014,07,15,11,34,19.60
2014,07,15,11,35,19.60
2014,07,15,11,36,19.50
2014,07,15,11,37,19.40
2014,07,15,11,38,19.40
2014,07,15,11,39,19.40
2014,07,15,11,40,19.40
2014,07,15,11,41,19.50
2014,07,15,11,42,19.60
2014,07,15,11,43,19.60
2014,07,15,11,44,19.70
2014,07,15,11,45,19.70
2014,07,15,11,46,19.70
2014,07,15,11,47,19.60
2014,07,15,11,48,19.60
2014,07,15,11,49,19.60
2014,07,15,11,50,19.60
2014,07,15,11,51,19.60
2014,07,15,11,52,19.60
2014,07,15,11,53,19.60
2014,07,15,11,54,19.60
2014,07,15,11,55,19.60
2014,07,15,11,56,19.60
2014,07,15,11,57,19.60
2014,07,15,11,58,19.60
2014,07,15,11,59,19.60
2014,07,15,12,00,19.50
2014,07,15,12,01,19.40
2014,07,15,12,02,19.40
2014,07,15,12,03,19.40
2014,07,15,12,04,19.40
2014,07,15,12,05,19.40
2014,07,15,12,06,19.50
2014,07,15,12,07,19.60
2014,07,15,12,08,19.60
2014,07,15,12,09,19.60
2014,07,15,12,10,19.60
2014,07,15,12,11,19.70
2014,07,15,12,12,19.70
2014,07,15,12,13,19.70
2014,07,15,12,14,19.70
2014,07,15,12,15,19.70
2014,07,15,12,16,19.70
2014,07,15,12,17,19.70
2014,07,15,12,18,19.70
2014,07,15,12,19,19.70
2014,07,15,12,20,19.60
2014,07,15,12,21,19.60
2014,07,15,12,22,19.60
2014,07,15,12,23,19.60
2014,07,15,12,24,19.70
2014,07,15,12,25,19.70
2014,07,15,12,26,19.80
2014,07,15,12,27,19.90
2014,07,15,12,28,20.00
2014,07,15,12,29,20.00
2014,07,15,12,30,20.10
2014,07,15,12,31,20.20
2014,07,15,12,32,20.20
2014,07,15,12,33,20.30
2014,07,15,12,34,20.40
2014,07,15,12,35,20.50
2014,07,15,12,36,20.60
2014,07,15,12,37,20.60
2014,07,15,12,38,20.60
2014,07,15,12,39,20.70
2014,07,15,12,40,20.70
2014,07,15,12,41,20.70
2014,07,15,12,42,20.80
2014,07,15,12,43,20.90
2014,07,15,12,44,21.00
2014,07,15,12,45,21.20
2014,07,15,12,46,21.30
2014,07,15,12,47,21.40
2014,07,15,12,48,21.40
2014,07,15,12,49,21.40
2014,07,15,12,50,21.30
2014,07,15,12,51,21.30
2014,07,15,12,52,21.30
2014,07,15,12,53,21.40
2014,07,15,12,54,21.40
2014,07,15,12,55,21.40
2014,07,15,12,56,21.40
2014,07,15,12,57,21.40
2014,07,15,12,58,21.40
2014,07,15,12,59,21.40
2014,07,15,13,00,21.40
2014,07,15,13,01,21.40
2014,07,15,13,02,21.50
2014,07,15,13,03,21.50
2014,07,15,13,04,21.60
2014,07,15,13,05,21.70
2014,07,15,13,06,21.70
2014,07,15,13,07,21.70
2014,07,15,13,08,21.80
2014,07,15,13,09,21.80
2014,07,15,13,10,21.80
2014,07,15,13,11,21.80
2014,07,15,13,12,21.80
2014,07,15,13,13,21.80
2014,07,15,13,14,21.80
2014,07,15,13,15,21.80
2014,07,15,13,16,21.90
2014,07,15,13,17,21.80
2014,07,15,13,18,21.80
2014,07,15,13,19,21.80
2014,07,15,13,20,21.70
2014,07,15,13,21,21.60
2014,07,15,13,22,21.50
2014,07,15,13,23,21.50
2014,07,15,13,24,21.40
2014,07,15,13,25,21.40
2014,07,15,13,26,21.40
2014,07,15,13,27,21.40
2014,07,15,13,28,21.40
2014,07,15,13,29,21.40
2014,07,15,13,30,21.40
2014,07,15,13,31,21.50
2014,07,15,13,32,21.60
2014,07,15,13,33,21.80
2014,07,15,13,34,21.90
2014,07,15,13,35,21.90
2014,07,15,13,36,21.90
2014,07,15,13,37,21.80
2014,07,15,13,38,21.80
2014,07,15,13,39,21.80
2014,07,15,13,40,21.80
2014,07,15,13,41,21.80
2014,07,15,13,42,21.80
2014,07,15,13,43,21.80
2014,07,15,13,44,21.90
2014,07,15,13,45,21.90
2014,07,15,13,46,21.90
2014,07,15,13,47,21.90
2014,07,15,13,48,21.90
2014,07,15,13,49,22.00
2014,07,15,13,50,22.10
2014,07,15,13,51,22.10
2014,07,15,13,52,22.20
2014,07,15,13,53,22.20
2014,07,15,13,54,22.20
2014,07,15,13,55,22.20
2014,07,15,13,56,22.10
2014,07,15,13,57,22.10
2014,07,15,13,58,22.10
2014,07,15,13,59,22.10
2014,07,15,14,00,22.10
2014,07,15,14,01,22.20
2014,07,15,14,02,22.20
2014,07,15,14,03,22.20
2014,07,15,14,04,22.30
2014,07,15,14,05,22.40
2014,07,15,14,06,22.50
2014,07,15,14,07,22.60
2014,07,15,14,08,22.70
2014,07,15,14,09,22.70
2014,07,15,14,10,22.80
2014,07,15,14,11,22.90
2014,07,15,14,12,23.00
2014,07,15,14,13,23.10
2014,07,15,14,14,23.20
2014,07,15,14,15,23.30
2014,07,15,14,16,23.40
2014,07,15,14,17,23.50
2014,07,15,14,18,23.60
2014,07,15,14,19,23.70
2014,07,15,14,20,23.80
2014,07,15,14,21,23.90
2014,07,15,14,22,24.10
2014,07,15,14,23,24.30
2014,07,15,14,24,24.40
2014,07,15,14,25,24.60
2014,07,15,14,26,24.70
2014,07,15,14,27,24.80
2014,07,15,14,28,24.80
2014,07,15,14,29,24.90
2014,07,15,14,30,24.90
2014,07,15,14,31,25.00
2014,07,15,14,32,25.10
2014,07,15,14,33,25.20
2014,07,15,14,34,25.20
2014,07,15,14,35,25.20
2014,07,15,14,36,25.30
2014,07,15,14,37,25.40
2014,07,15,14,38,25.50
2014,07,15,14,39,25.60
2014,07,15,14,40,25.60
2014,07,15,14,41,25.70
2014,07,15,14,42,25.70
2014,07,15,14,43,25.60
2014,07,15,14,44,25.60
2014,07,15,14,45,25.50
2014,07,15,14,46,25.40
2014,07,15,14,47,25.40
2014,07,15,14,48,25.40
2014,07,15,14,49,25.40
2014,07,15,14,50,25.40
2014,07,15,14,51,25.50
2014,07,15,14,52,25.60
2014,07,15,14,53,25.60
2014,07,15,14,54,25.60
2014,07,15,14,55,25.40
2014,07,15,14,56,25.40
2014,07,15,14,57,25.30
2014,07,15,14,58,25.20
2014,07,15,14,59,25.20
2014,07,15,15,00,25.20
2014,07,15,15,01,25.30
2014,07,15,15,02,25.20
2014,07,15,15,03,25.10
2014,07,15,15,04,25.00
2014,07,15,15,05,25.00
2014,07,15,15,06,25.10
2014,07,15,15,07,25.10
2014,07,15,15,08,25.10
2014,07,15,15,09,25.20
2014,07,15,15,10,25.20
2014,07,15,15,11,25.30
2014,07,15,15,12,25.30
2014,07,15,15,13,25.40
2014,07,15,15,14,25.40
2014,07,15,15,15,25.40
2014,07,15,15,16,25.40
2014,07,15,15,17,25.40
2014,07,15,15,18,25.40
2014,07,15,15,19,25.40
2014,07,15,15,20,25.40
2014,07,15,15,21,25.40
2014,07,15,15,22,25.40
2014,07,15,15,23,25.40
2014,07,15,15,24,25.30
2014,07,15,15,25,25.30
2014,07,15,15,26,25.40
2014,07,15,15,27,25.50
2014,07,15,15,28,25.60
2014,07,15,15,29,25.70
2014,07,15,15,30,25.80
2014,07,15,15,31,25.90
2014,07,15,15,32,25.90
2014,07,15,15,33,25.90
2014,07,15,15,34,25.90
2014,07,15,15,35,26.00
2014,07,15,15,36,26.10
2014,07,15,15,37,26.10
2014,07,15,15,38,26.10
2014,07,15,15,39,26.10
2014,07,15,15,40,26.00
2014,07,15,15,41,25.90
2014,07,15,15,42,25.90
2014,07,15,15,43,25.90
2014,07,15,15,44,25.90
2014,07,15,15,45,25.80
2014,07,15,15,46,25.90
2014,07,15,15,47,25.90
2014,07,15,15,48,25.80
2014,07,15,15,49,25.70
2014,07,15,15,50,25.60
2014,07,15,15,51,25.60
2014,07,15,15,52,25.60
2014,07,15,15,53,25.70
2014,07,15,15,54,25.80
2014,07,15,15,55,26.00
2014,07,15,15,56,26.10
2014,07,15,15,57,26.30
2014,07,15,15,58,26.40
2014,07,15,15,59,26.40
2014,07,15,16,00,26.40
2014,07,15,16,01,26.40
2014,07,15,16,02,26.40
2014,07,15,16,03,26.30
2014,07,15,16,04,26.30
2014,07,15,16,05,26.30
2014,07,15,16,06,26.30
2014,07,15,16,07,26.20
2014,07,15,16,08,26.10
2014,07,15,16,09,26.10
2014,07,15,16,10,26.10
2014,07,15,16,11,26.10
2014,07,15,16,12,26.20
2014,07,15,16,13,26.20
2014,07,15,16,14,26.10
2014,07,15,16,15,26.00
2014,07,15,16,16,26.00
2014,07,15,16,17,26.10
2014,07,15,16,18,26.20
2014,07,15,16,19,26.20
2014,07,15,16,20,26.20
2014,07,15,16,21,26.20
2014,07,15,16,22,26.20
2014,07,15,16,23,26.20
2014,07,15,16,24,26.30
2014,07,15,16,25,26.30
2014,07,15,16,26,26.30
2014,07,15,16,27,26.20
2014,07,15,16,28,26.10
2014,07,15,16,29,26.10
2014,07,15,16,30,26.20
2014,07,15,16,31,26.30
2014,07,15,16,32,26.30
2014,07,15,16,33,26.40
2014,07,15,16,34,26.50
2014,07,15,16,35,26.60
2014,07,15,16,36,26.70
2014,07,15,16,37,26.80
2014,07,15,16,38,26.90
2014,07,15,16,39,26.90
2014,07,15,16,40,26.90
2014,07,15,16,41,26.90
2014,07,15,16,42,26.80
2014,07,15,16,43,26.70
2014,07,15,16,44,26.60
2014,07,15,16,45,26.60
2014,07,15,16,46,26.50
2014,07,15,16,47,26.50
2014,07,15,16,48,26.50
2014,07,15,16,49,26.50
2014,07,15,16,50,26.40
2014,07,15,16,51,26.50
2014,07,15,16,52,26.50
2014,07,15,16,53,26.60
2014,07,15,16,54,26.70
2014,07,15,16,55,26.80
2014,07,15,16,56,26.80
2014,07,15,16,57,26.90
2014,07,15,16,58,26.90
2014,07,15,16,59,27.00
2014,07,15,17,00,27.10
2014,07,15,17,01,27.10
2014,07,15,17,02,27.20
2014,07,15,17,03,27.20
2014,07,15,17,04,27.20
2014,07,15,17,05,27.30
2014,07,15,17,06,27.30
2014,07,15,17,07,27.40
2014,07,15,17,08,27.40
2014,07,15,17,09,27.30
2014,07,15,17,10,27.20
2014,07,15,17,11,27.20
2014,07,15,17,12,27.20
2014,07,15,17,13,27.20
2014,07,15,17,14,27.20
2014,07,15,17,15,27.30
2014,07,15,17,16,27.30
2014,07,15,17,17,27.40
2014,07,15,17,18,27.40
2014,07,15,17,19,27.40